Regional Weather Roundup
Issued by NWS

Home | Current Version | Previous Version | Text Only | Print | Product List | Glossary Off
Versions: 1 2 3 4 5 6 7 8 9 10 11 12 13 14 15 16 17 18 19 20 21 22 23 24 25 26 27 28 29 30 31 32 33 34 35 36 37 38 39 40 41 42 43 44 45 46 47 48 49 50

000
ASUS43 KOAX 182302
RWRNE

WEATHER ROUNDUP FOR NEBRASKA
NATIONAL WEATHER SERVICE OMAHA NE
500 PM CST THU DEC 18 2014

NOTES: SATELLITE DATA IS BEING USED TO AUGMENT CLOUD COVER ABOVE
       12000 FEET.
       "FAIR" INDICATES FEW OR NO CLOUDS BELOW 12,000 FEET WITH NO
       SIGNIFICANT WEATHER AND/OR OBSTRUCTIONS TO VISIBILITY.

  * THESE STATIONS DO NOT REPORT WEATHER SUCH AS RAIN...SNOW OR FOG.

NEZ001>004-019>022-054>056-190000-
NEBRASKA PANHANDLE

CITY           SKY/WX    TMP DP  RH WIND       PRES   REMARKS
SCOTTSBLUFF    MOCLDY    18  15  88 CALM      30.03S FOG
ALLIANCE       CLEAR     26  21  81 W7        30.00S WCI  18
CHADRON        CLEAR     29  21  72 SW7       30.02R WCI  22
KIMBALL        MOCLDY    36  24  60 W6        30.01S WCI  31
SIDNEY         MOCLDY    33  24  69 W7        30.04R WCI  27
$$

NEZ057>060-069>072-079>082-190000-
SOUTHWEST NEBRASKA

CITY           SKY/WX    TMP DP  RH WIND       PRES   REMARKS
NORTH PLATTE   CLOUDY    28  25  88 SW8       30.08S FOG     WCI  20
IMPERIAL       MOCLDY    28  25  88 CALM      30.07S
LEXINGTON      CLOUDY    30  27  88 SW3       30.11S
MCCOOK         CLOUDY    29  26  89 CALM      30.10S
$$

NEZ005>010-023>029-035>040-094-190000-
NORTH CENTRAL NEBRASKA

CITY           SKY/WX    TMP DP  RH WIND       PRES   REMARKS
VALENTINE      CLEAR     24  20  84 S5        30.06R WCI  18
AINSWORTH      CLOUDY    26  24  95 SW3       30.06S FOG
BROKEN BOW     CLOUDY    30  26  85 SW7       30.09R WCI  23
$$

NEZ041-046>049-061>064-073>077-083>087-190000-
SOUTH CENTRAL NEBRASKA

CITY           SKY/WX    TMP DP  RH WIND       PRES   REMARKS
GRAND ISLAND   CLOUDY    30  25  81 SW3       30.15F
AURORA         CLOUDY    30  27  87 CALM      30.16S
HASTINGS       CLOUDY    30  25  81 W5        30.14S WCI  25
KEARNEY *      CLOUDY    28  23  80 SW7       30.13F WCI  21
$$

NEZ011>018-030>034-042>045-190000-
NORTHEAST NEBRASKA

CITY           SKY/WX    TMP DP  RH WIND       PRES   REMARKS
NORFOLK        CLOUDY    29  24  82 S5        30.16S WCI  24
ALBION         CLOUDY    28  24  82 S3        30.15S
BLAIR          CLOUDY    31  27  82 CALM      30.20R
COLUMBUS *     CLOUDY    30  21  69 S5        30.19S WCI  25
FREMONT        CLOUDY    32  27  83 CALM      30.20R
TEKAMAH        CLOUDY    31  26  82 SE6       30.22R WCI  25
$$

NEZ050>053-065>068-078-088>093-190000-
SOUTHEAST NEBRASKA

CITY           SKY/WX    TMP DP  RH WIND       PRES   REMARKS
LINCOLN        CLOUDY    32  26  78 CALM      30.21R
OMAHA EPPLEY   CLOUDY    31  26  82 S3        30.23R
BEATRICE       CLOUDY    31  28  86 CALM      30.19S
FALLS CITY     CLOUDY    30  26  85 E3        30.21S
NEBRASKA CITY  CLOUDY    30  28  92 CALM      30.21R
PLATTSMOUTH    CLOUDY    30  26  84 SE3       30.21R
$$

NEZ044-045-051>053-067-190000-
OMAHA AREA

CITY           SKY/WX    TMP DP  RH WIND       PRES   REMARKS
OMAHA EPPLEY   CLOUDY    31  26  82 S3        30.23R
BLAIR          CLOUDY    31  27  82 CALM      30.20R
FREMONT        CLOUDY    32  27  83 CALM      30.20R
OFFUTT AFB     CLOUDY    31  26  84 SE3       30.22R
PLATTSMOUTH    CLOUDY    30  26  84 SE3       30.21R
WAHOO          CLOUDY    31  26  81 SE3       30.20R
$$


USA.gov is the U.S. government's official web portal to all federal, state and local government web resources and services.